Regional Weather Roundup
Issued by NWS Jackson, KY

Home | Current Version | Previous Version | Graphics & Text | Print | Product List | Glossary On
Versions: 1 2 3 4 5 6 7 8 9 10 11 12 13 14 15 16 17 18 19 20 21 22 23 24 25 26 27 28 29 30 31 32 33 34 35 36 37 38 39 40 41 42 43 44 45 46 47 48 49 50
000
ASUS43 KJKL 221710
RWRJKL

EAST KENTUCKY HOURLY WEATHER ROUNDUP
NATIONAL WEATHER SERVICE JACKSON KY
100 PM EDT SUN OCT 22 2017

NOTE: "FAIR" INDICATES FEW OR NO CLOUDS BELOW 12,000 FEET WITH
NO SIGNIFICANT WEATHER AND/OR OBSTRUCTIONS TO VISIBILITY.

* THESE REPORTS ARE NOT UNDER NWS QUALITY CONTROL AND MAY NOT
  REPORT WEATHER SUCH AS PRECIPITATION AND FOG.

KYZ079-080-083-085-087-088-110-112-115-119-120-221800
...EASTERN KENTUCKY...

CITY           SKY/WX    TMP DP  RH WIND       PRES   REMARKS
JACKSON        CLOUDY    72  49  44 CALM      30.25F
LONDON         MOSUNNY   71  49  45 S9        30.23F
SOMERSET*      MOSUNNY   70  52  52 SE5       30.21F
MONTICELLO*    MOSUNNY   74  57  55 E7G20     30.20F
WILLIAMSBURG*  MOSUNNY   72  50  46 SE12      30.22F
MIDDLESBORO*   MOSUNNY   73  50  45 CALM      30.25F
HARLAN APT*    MOSUNNY   73  46  38 CALM      30.26F
PIKE CO APT*     N/A     71  50  47 SE5       30.26F
BIG SANDY APT* SUNNY     73  50  43 SE6       30.26F
MOREHEAD APT*  SUNNY     73  48  40 SE7       30.25F
$$

KYZ035-036-041-042-044-050-067-078-099-221800
...CENTRAL KENTUCKY...

CITY           SKY/WX    TMP DP  RH WIND       PRES   REMARKS
MT STERLING*   SUNNY     73  48  40 S9        30.24F
FLEMING/MASON* CLOUDY    74  50  42 S9        30.23F
DANVILLE*      MOSUNNY   70  52  52 S10       30.21F
LEXINGTON      MOSUNNY   74  51  44 S17G29    30.20F
FRANKFORT      CLOUDY    73  52  47 S13       30.18F
LOUISVILLE     PTSUNNY   76  57  51 S13       30.13F
LEBANON*         N/A     73  52  46 S9        30.18F
GLASGOW*       MOSUNNY   77  57  49 S15       30.15F
BOWLING GREEN  MOSUNNY   77  59  53 S17       30.13F
$$

KYZ091>093-OHZ055-061-077-WVZ005-015-034-035-042-221800
...SOUTHERN OHIO/WEST VIRGINIA...

CITY           SKY/WX    TMP DP  RH WIND       PRES   REMARKS
COVINGTON      CLOUDY    74  56  53 S17       30.17F
COLUMBUS       MOSUNNY   75  53  46 S14       30.21F
DAYTON         MOSUNNY   73  55  53 S16G24    30.18F
WILMINGTON     SUNNY     73  54  51 S20       30.20F
HUNTINGTON     SUNNY     75  50  41 SW6       30.25F
CHARLESTON     MOSUNNY   76  45  33 SW5       30.26F
PINEVILLE*     SUNNY     76  47  35 MISG      30.32F
BECKLEY        SUNNY     70  49  47 S8        30.32F
BLUEFIELD      SUNNY     67  42  40 S12G20    30.34F
LOGAN CO APT*    N/A     75  48  38 CALM      30.27F
$$

VAZ002-007-008-TNZ017-027-036-066-071-221800
...SOUTHWEST VIRGINIA/EAST TENNESSEE...

CITY           SKY/WX    TMP DP  RH WIND       PRES   REMARKS
WISE*          MOSUNNY   70  46  43 S8G16     30.31F
JONESVILLE*      N/A     72  50  46 SE5       30.29F
ABINGDON*      SUNNY     75  46  35 SW3       30.30F
BRISTOL        PTSUNNY   74  51  44 CALM      30.27F
MORRISTOWN*    SUNNY     75  48  38 VRB3      30.25F
SEVIERVILLE*   SUNNY     73  50  43 N6        30.23F
KNOXVILLE      CLOUDY    74  58  57 N5        30.22F
LAFOLLETTE*    SUNNY     72  54  53 S5        30.27F
OAK RIDGE      SUNNY     73  57  57 VRB3      30.23
CROSSVILLE     SUNNY     71  55  56 SE12G24   30.22F
NASHVILLE      PTSUNNY   79  59  50 S25G35    30.13S
$$

...KEY TO REMARKS...
VSB - VISIBILITY IN MILES
WCI - WIND CHILL INDEX
HX  - HEAT INDEX

$$



USA.gov is the U.S. government's official web portal to all federal, state and local government web resources and services.